CW6076 Weather Reports


time (UTC)temp
C
wind
direction
speed
KPH
gust
KPH
rain 1hr
cm
rain 24hr
cm
rain mn
cm
humidity
%
barometer
mb
20260508040005 9 338 3.2 6.4 0.00 0.03 0.03 85 1015.8
20260508034600 9 12 0.0 3.2 0.00 0.03 0.03 85 1015.9
20260508033117 9 44 0.0 1.6 0.03 0.03 0.03 85 1016.1
20260508031559 9 44 0.0 6.4 0.03 0.03 0.03 84 1016.0
20260508030110 10 323 0.0 8.0 0.03 0.03 0.03 84 1016.1
20260508030002 10 355 0.0 8.0 0.03 0.03 0.03 84 1016.1
20260508024621 10 336 3.2 6.4 0.03 0.03 0.03 83 1016.1
20260508023059 10 65 0.0 1.6 0.00 0.00 0.00 83 1016.2
20260508021600 10 355 1.6 4.8 0.00 0.00 0.00 82 1016.2
20260508020111 10 360 1.6 9.7 0.00 0.00 0.00 83 1016.1
20260508020001 10 11 0.0 9.7 0.00 0.00 0.00 83 1016.1
20260508014623 10 23 4.8 8.0 0.00 0.00 0.00 83 1016.2
20260508013108 10 22 1.6 6.4 0.00 0.00 0.00 83 1016.2
20260508011605 10 341 1.6 6.4 0.00 0.00 0.00 82 1016.2
20260508010115 10 325 1.6 4.8 0.00 0.00 0.00 80 1016.2
20260508010001 10 315 1.6 4.8 0.00 0.00 0.00 80 1016.2
20260508004600 10 212 0.0 4.8 0.00 0.00 0.00 78 1016.3
20260508003100 10 157 1.6 9.7 0.00 0.00 0.00 78 1016.4
20260508001604 10 340 1.6 6.4 0.00 0.00 0.00 79 1016.4
20260508000006 10 42 0.0 6.4 0.00 0.00 0.00 79 1016.5
20260507234504 10 344 0.0 4.8 0.00 0.00 0.00 78 1016.4
20260507233005 10 338 3.2 8.0 0.00 0.00 0.00 78 1016.4
20260507231505 11 346 3.2 9.7 0.00 0.00 0.00 77 1016.5
20260507230020 11 294 3.2 6.4 0.00 0.00 0.00 77 1016.6
20260507224503 10 338 1.6 4.8 0.00 0.00 0.00 76 1016.5
20260507223002 11 324 1.6 4.8 0.00 0.00 0.00 75 1016.4
20260507221502 11 344 0.0 3.2 0.00 0.00 0.00 75 1016.3
20260507220004 11 344 0.0 4.8 0.00 0.00 0.00 75 1016.3
20260507214502 11 42 0.0 3.2 0.00 0.00 0.00 74 1016.3
20260507213003 11 63 1.6 4.8 0.00 0.00 0.00 74 1016.4
20260507211506 11 93 0.0 1.6 0.00 0.00 0.00 74 1016.4
20260507210005 11 151 0.0 3.2 0.00 0.00 0.00 74 1016.3
20260507204502 11 126 0.0 1.6 0.00 0.00 0.00 74 1016.1
20260507203002 11 126 0.0 1.6 0.00 0.00 0.00 74 1016.0
20260507201504 12 126 0.0 3.2 0.00 0.00 0.00 73 1015.8
20260507200003 12 79 0.0 1.6 0.00 0.00 0.00 73 1015.7
20260507194500 12 79 0.0 4.8 0.00 0.00 0.00 72 1015.7
20260507193001 12 128 0.0 3.2 0.00 0.00 0.00 71 1015.6
20260507191501 13 42 1.6 4.8 0.00 0.00 0.00 70 1015.7
20260507190004 13 165 0.0 4.8 0.00 0.00 0.00 67 1015.7
20260507184501 13 176 0.0 3.2 0.00 0.00 0.00 65 1015.6
20260507183001 14 213 1.6 8.0 0.00 0.00 0.00 65 1015.6
20260507181501 13 144 1.6 4.8 0.00 0.00 0.00 66 1015.7
20260507180004 13 130 3.2 8.0 0.00 0.00 0.00 67 1015.7
20260507174503 12 105 3.2 11.3 0.00 0.00 0.00 70 1015.7
20260507173001 12 171 4.8 14.5 0.00 0.00 0.00 71 1015.8
20260507171503 12 137 4.8 11.3 0.00 0.00 0.00 72 1015.8
20260507170011 12 152 4.8 16.1 0.00 0.00 0.00 71 1015.9
20260507164501 13 161 9.7 16.1 0.00 0.00 0.00 71 1015.8
20260507163000 13 136 11.3 16.1 0.00 0.00 0.00 70 1015.8
20260507161502 13 162 8.0 19.3 0.00 0.00 0.00 69 1015.7
20260507160003 14 154 8.0 17.7 0.00 0.00 0.00 67 1015.7
20260507154501 15 146 9.7 19.3 0.00 0.00 0.00 64 1015.8
20260507153001 15 157 8.0 14.5 0.00 0.00 0.00 60 1015.8
20260507151501 15 242 6.4 12.9 0.00 0.00 0.00 61 1015.8
20260507150003 15 170 4.8 14.5 0.00 0.00 0.00 59 1015.9
20260507144501 16 158 8.0 14.5 0.00 0.00 0.00 57 1016.0
20260507143001 16 157 8.0 12.9 0.00 0.00 0.00 56 1016.0
20260507141502 15 99 3.2 11.3 0.00 0.00 0.00 59 1016.0
20260507140006 15 156 4.8 11.3 0.00 0.00 0.00 61 1016.2
20260507134501 13 167 3.2 11.3 0.00 0.00 0.00 65 1016.2
20260507133001 13 166 4.8 11.3 0.00 0.00 0.00 68 1016.3
20260507131501 13 151 4.8 12.9 0.00 0.00 0.00 66 1016.5
20260507130002 14 159 4.8 12.9 0.00 0.00 0.00 67 1016.4
20260507124500 14 165 4.8 14.5 0.00 0.00 0.00 66 1016.4
20260507123001 14 199 4.8 16.1 0.00 0.00 0.00 66 1016.4
20260507121501 14 167 4.8 16.1 0.00 0.00 0.00 66 1016.4
20260507120003 15 190 6.4 16.1 0.00 0.00 0.00 65 1016.4
20260507114500 15 185 9.7 25.7 0.00 0.00 0.00 60 1016.3
20260507113000 15 161 9.7 19.3 0.00 0.00 0.00 60 1016.2
20260507111500 15 188 12.9 19.3 0.00 0.00 0.00 62 1016.3
20260507110003 15 148 9.7 22.5 0.00 0.00 0.00 61 1016.3
20260507104508 15 148 14.5 24.1 0.00 0.00 0.00 61 1016.4
20260507103002 15 173 9.7 24.1 0.00 0.00 0.00 60 1016.4
20260507101503 15 195 8.0 25.7 0.00 0.00 0.00 62 1016.4
20260507100002 14 155 11.3 27.4 0.00 0.00 0.00 61 1016.3
20260507094603 14 204 11.3 22.5 0.00 0.00 0.00 64 1016.3
20260507094503 14 177 11.3 22.5 0.00 0.00 0.00 63 1016.2
20260507093103 14 148 4.8 20.9 0.00 0.00 0.00 64 1016.3
20260507091600 15 165 6.4 17.7 0.00 0.00 0.00 64 1016.2
20260507090002 14 156 14.5 24.1 0.00 0.00 0.00 62 1016.2
20260507084607 14 125 4.8 16.1 0.00 0.00 0.00 63 1016.1
20260507083100 14 163 9.7 19.3 0.00 0.00 0.00 63 1016.0
20260507081601 12 178 6.4 17.7 0.00 0.00 0.00 69 1016.1
20260507080100 12 129 4.8 14.5 0.00 0.00 0.00 70 1016.1
20260507080003 12 90 4.8 14.5 0.00 0.00 0.00 70 1016.1
20260507074608 11 117 4.8 12.9 0.00 0.00 0.00 71 1015.8
20260507073102 11 355 4.8 14.5 0.00 0.00 0.00 72 1016.0
20260507071607 11 120 3.2 12.9 0.00 0.00 0.00 72 1015.9
20260507070108 10 180 4.8 14.5 0.00 0.00 0.00 72 1015.7
20260507070004 10 130 3.2 11.3 0.00 0.00 0.00 72 1015.7
20260507064601 10 178 3.2 11.3 0.00 0.00 0.00 73 1015.8
20260507063100 10 71 1.6 8.0 0.00 0.00 0.00 72 1015.9
20260507061600 10 34 3.2 8.0 0.00 0.00 0.00 73 1015.9
20260507060104 10 309 1.6 9.7 0.00 0.00 0.00 73 1015.7
20260507060002 10 323 0.0 9.7 0.00 0.00 0.00 72 1015.7
20260507054615 10 26 4.8 9.7 0.00 0.00 0.00 72 1015.7
20260507053108 10 75 3.2 12.9 0.00 0.00 0.00 72 1015.5
20260507051601 10 11 1.6 14.5 0.00 0.00 0.00 72 1015.5
20260507050009 10 324 1.6 12.9 0.00 0.00 0.00 72 1015.4
20260507044606 10 146 3.2 11.3 0.00 0.00 0.00 72 1015.4
20260507043101 10 176 4.8 12.9 0.00 0.00 0.00 72 1015.4
20260507041609 10 163 4.8 12.9 0.00 0.00 0.00 72 1015.4
20260507040100 10 156 3.2 12.9 0.00 0.00 0.00 72 1015.4